Tracking 22283 objects as of 28-Jan-2021
HD Live streaming from Space Station
objects crossing your sky now

OV3-3

Track OV3-3 now!
10-day predictions
OV3-3 is classified as:


NORAD ID: 2389
Int'l Code: 1966-070A
Perigee: 347.2 km
Apogee: 2,227.6 km
Inclination: 81.4 °
Period: 111.2 minutes
Semi major axis: 7658 km
RCS: 0.7052 m2 (medium)
Launch date: August 4, 1966
Source: United States (US)
Launch site: AIR FORCE WESTERN TEST RANGE (AFWTR)
aabbcc
Your satellite tracking list
Your tracking list is empty




NASA's NSSDC Master Catalog

Two Line Element Set (TLE):
1 02389U 66070A   21027.85625243  .00002809  00000-0  15434-3 0  9997
2 02389  81.3859 181.3181 1227671 351.3723   6.7872 12.95381298340477
Source of the keplerian elements: AFSPC